Date,TemperatureHighF,TemperatureAvgF,TemperatureLowF,DewpointHighF,DewpointAvgF,DewpointLowF,HumidityHigh,HumidityAvg,HumidityLow,PressureMaxIn,PressureMinIn,WindSpeedMaxMPH,WindSpeedAvgMPH,GustSpeedMaxMPH,PrecipitationSumIn
2013-2-1,7.3,0.1,-8.5,1.3,-7.4,-13.6,84,70,50,30.28,30.07,0,0,0,0.00
2013-2-2,20.7,8.9,2.7,12.9,2.9,-1.8,88,76,54,30.08,29.97,0,0,0,0.00
2013-2-3,26.1,14.5,6.3,12.1,7.8,2.6,87,75,50,30.00,29.89,9,1,16,0.00
2013-2-4,21.4,14.1,6.6,13.9,8.8,2.4,89,79,58,29.96,29.89,7,2,12,0.00
2013-2-5,31.6,20.0,6.8,24.4,15.0,1.2,90,81,70,30.08,29.75,7,2,13,0.00
2013-2-6,33.4,21.8,3.2,29.4,16.0,0.3,88,79,56,30.18,30.02,5,1,10,0.00
2013-2-7,37.2,31.3,21.7,35.7,29.7,20.1,97,94,88,30.07,29.89,3,0,6,0.07
2013-2-8,34.7,21.5,7.5,25.4,17.0,4.5,95,83,55,30.35,30.07,4,0,7,0.00
2013-2-9,29.3,22.3,6.4,25.0,19.4,3.3,94,88,80,30.36,30.03,8,2,17,0.00
2013-2-10,42.3,33.2,19.4,42.0,31.9,17.2,99,95,84,30.03,29.38,11,3,19,0.54
2013-2-11,36.9,29.8,23.5,33.1,24.2,17.1,91,80,69,29.99,29.39,15,5,31,0.11
2013-2-12,33.8,24.6,20.5,22.5,17.8,14.5,91,76,61,30.06,29.84,9,2,15,0.00
2013-2-13,41.4,30.5,18.7,29.8,24.4,16.9,94,79,59,29.84,29.65,6,1,11,0.00
2013-2-14,41.4,33.8,28.4,35.0,26.6,19.7,93,76,53,29.98,29.55,11,3,22,0.06
2013-2-15,33.1,24.1,11.7,21.3,8.6,2.3,81,53,36,30.18,29.99,8,2,14,0.00
2013-2-16,23.4,11.8,1.4,12.2,1.9,-3.7,85,65,42,30.17,30.10,7,2,14,0.00
2013-2-17,28.8,15.8,-2.6,19.1,6.0,-6.6,84,66,42,30.15,29.88,7,2,14,0.00
2013-2-18,50.2,34.3,21.2,37.4,27.6,16.4,95,77,59,29.87,29.47,11,3,21,0.08
2013-2-19,21.0,12.8,7.5,16.7,5.6,-2.7,86,73,61,30.17,29.57,13,5,24,0.00
2013-2-20,30.2,15.7,4.5,16.6,5.1,-3.2,87,63,44,30.34,30.17,8,2,12,0.00
2013-2-21,25.2,18.7,10.0,22.8,13.7,4.6,94,81,69,31.11,29.06,10,3,21,0.00
2013-2-22,32.9,27.0,23.2,27.5,23.8,21.6,95,88,75,29.99,29.76,8,1,13,0.00
2013-2-23,27.9,27.9,27.9,23.7,23.7,23.7,84,84,84,29.81,29.81,0,0,4,0.00
2013-2-24,27.9,27.9,27.9,23.7,23.7,23.7,84,84,84,29.81,29.81,0,0,4,0.00
2013-2-25,27.9,27.9,27.9,23.7,23.7,23.7,84,84,84,29.81,29.81,0,0,4,0.00
2013-2-26,27.9,27.9,27.9,23.7,23.7,23.7,84,84,84,29.81,29.81,0,0,4,0.00
2013-2-27,27.9,27.9,27.9,23.7,23.7,23.7,84,84,84,29.81,29.81,0,0,4,0.00
2013-2-28,27.9,27.9,27.9,23.7,23.7,23.7,84,84,84,29.81,29.81,0,0,4,0.00